OUTPOST MISSION 2 (58334 NORAD) Tracking and Keplerian Element Data

This shows tracking and keplerian element data for the satellite.

Feedback or suggestion? Click here.




ElementValue
Catalog58334
NameOUTPOST MISSION 2
Epoch Orbit5161
Epoch Day286.81638786
Epoch Year2024
RAAN0.7777
Inclination97.4516
Eccentricity0.0011411
Argument of Perigee153.2295
Mean Anonmoly206.9533
Mean Motion15.24496861
Decay Rate0.00027008
L11 58334U 23174CG 24286.81638786 .00027008 00000+0 10967-2 0 9990
L22 58334 97.4516 0.7777 0011411 153.2295 206.9533 15.24496861 51617



Live tracking and technical data element details for OUTPOST MISSION 2 (NORAD 58334). OUTPOST MISSION 2 can be tracked NOW for your location showing map with azimuth and elevation plus other details from your city location.







IsCatalogInMostPopularTable: catalog: 58334, numindb: 113
Update: records affected: 1



GetName: 58334 OUTPOST MISSION 2

Hit Count: updated at: Fri, 06 Dec 2024 10:45:49 GMT